Time,TemperatureF,DewpointF,PressureIn,WindDirection,WindDirectionDegrees,WindSpeedMPH,WindSpeedGustMPH,Humidity,HourlyPrecipIn,Conditions,Clouds,dailyrainin,SoftwareType,DateUTC
2013-05-04 00:00:00,60.2,38.7,29.88,ENE,67,0.0,0.0,45,0.00,,,0.00,WUHU21623XXSP,2013-05-04 04:00:00,
2013-05-04 00:01:00,60.2,38.7,29.88,ENE,67,0.0,0.0,45,0.00,,,0.00,WUHU21623XXSP,2013-05-04 04:01:00,
2013-05-04 00:02:00,60.2,38.7,29.88,ENE,67,0.0,0.0,45,0.00,,,0.00,WUHU21623XXSP,2013-05-04 04:02:00,
2013-05-04 00:07:00,60.0,38.5,29.88,ENE,67,0.0,0.0,45,0.00,,,0.00,WUHU21623XXSP,2013-05-04 04:07:00,
2013-05-04 00:12:00,60.0,39.1,29.88,East,90,3.8,3.8,46,0.00,,,0.00,WUHU21623XXSP,2013-05-04 04:12:00,
2013-05-04 00:17:00,60.0,39.1,29.88,ENE,67,0.0,3.8,46,0.00,,,0.00,WUHU21623XXSP,2013-05-04 04:17:00,
2013-05-04 00:22:00,60.0,39.1,29.88,ENE,67,0.0,3.8,46,0.00,,,0.00,WUHU21623XXSP,2013-05-04 04:22:00,
2013-05-04 00:27:00,59.8,39.5,29.88,ENE,67,0.0,0.0,47,0.00,,,0.00,WUHU21623XXSP,2013-05-04 04:27:00,
2013-05-04 00:32:00,59.7,39.4,29.88,ENE,67,0.0,0.0,47,0.00,,,0.00,WUHU21623XXSP,2013-05-04 04:32:00,
2013-05-04 00:37:00,59.1,39.4,29.88,NE,45,0.0,0.0,48,0.00,,,0.00,WUHU21623XXSP,2013-05-04 04:37:00,
2013-05-04 00:44:00,59.1,39.9,29.88,ENE,67,0.0,0.0,49,0.00,,,0.00,WUHU21623XXSP,2013-05-04 04:44:00,
2013-05-04 00:49:00,58.9,39.8,29.88,East,90,0.0,0.0,49,0.00,,,0.00,WUHU21623XXSP,2013-05-04 04:49:00,
2013-05-04 00:54:00,58.8,39.7,29.88,ENE,67,0.0,0.0,49,0.00,,,0.00,WUHU21623XXSP,2013-05-04 04:54:00,
2013-05-04 00:59:00,58.4,39.8,29.88,ENE,67,0.0,0.0,50,0.00,,,0.00,WUHU21623XXSP,2013-05-04 04:59:00,
2013-05-04 01:04:00,58.4,39.8,29.88,NE,45,0.0,0.0,50,0.00,,,0.00,WUHU21623XXSP,2013-05-04 05:04:00,
2013-05-04 01:09:00,58.2,40.2,29.88,ENE,67,0.0,0.0,51,0.00,,,0.00,WUHU21623XXSP,2013-05-04 05:09:00,
2013-05-04 01:14:00,58.2,40.2,29.88,ENE,67,0.0,0.0,51,0.00,,,0.00,WUHU21623XXSP,2013-05-04 05:14:00,
2013-05-04 01:19:00,58.2,40.2,29.88,East,90,3.8,3.8,51,0.00,,,0.00,WUHU21623XXSP,2013-05-04 05:19:00,
2013-05-04 01:24:00,58.0,40.5,29.88,East,90,0.0,3.8,52,0.00,,,0.00,WUHU21623XXSP,2013-05-04 05:24:00,
2013-05-04 01:38:00,57.9,40.9,29.87,ENE,68,0.0,0.0,53,0.00,,,0.00,WUHU21623XXSP,2013-05-04 05:38:00,
2013-05-04 02:38:00,57.7,41.7,29.86,East,90,0.0,0.0,55,0.00,,,0.00,WUHU21623XXSP,2013-05-04 06:38:00,
2013-05-04 03:38:00,58.6,42.6,29.86,East,90,0.0,0.0,55,0.00,,,0.00,WUHU21623XXSP,2013-05-04 07:38:00,
2013-05-04 04:38:00,57.5,42.5,29.87,SE,135,0.0,0.0,57,0.00,,,0.00,WUHU21623XXSP,2013-05-04 08:38:00,
2013-05-04 05:38:00,55.9,42.3,29.88,SSE,158,0.0,0.0,60,0.00,,,0.00,WUHU21623XXSP,2013-05-04 09:38:00,
2013-05-04 06:38:00,54.6,42.4,29.89,SSE,158,0.0,0.0,63,0.00,,,0.00,WUHU21623XXSP,2013-05-04 10:38:00,
2013-05-04 07:38:00,60.4,47.5,29.89,SE,135,0.0,0.0,62,0.00,,,0.00,WUHU21623XXSP,2013-05-04 11:38:00,
2013-05-04 08:38:00,64.2,47.8,29.91,SSE,158,3.6,3.6,55,0.00,,,0.00,WUHU21623XXSP,2013-05-04 12:38:00,
2013-05-04 09:38:00,67.2,49.1,29.91,SSW,203,0.0,0.0,52,0.00,,,0.00,WUHU21623XXSP,2013-05-04 13:38:00,
2013-05-04 10:38:00,69.7,49.7,29.91,ESE,113,0.0,0.0,49,0.00,,,0.00,WUHU21623XXSP,2013-05-04 14:38:00,
2013-05-04 11:38:00,71.9,50.6,29.91,SE,135,0.0,0.0,47,0.00,,,0.00,WUHU21623XXSP,2013-05-04 15:38:00,
2013-05-04 12:12:00,72.4,49.8,29.91,NE,45,0.0,0.0,45,0.00,,,0.00,WUHU21623XXSP,2013-05-04 16:12:00,
2013-05-04 12:17:00,72.4,49.8,29.91,NE,45,0.0,0.0,45,0.00,,,0.00,WUHU21623XXSP,2013-05-04 16:17:00,
2013-05-04 12:22:00,72.3,50.4,29.91,East,90,0.0,0.0,46,0.00,,,0.00,WUHU21623XXSP,2013-05-04 16:22:00,
2013-05-04 12:27:00,72.4,49.8,29.91,ESE,112,0.0,0.0,45,0.00,,,0.00,WUHU21623XXSP,2013-05-04 16:27:00,
2013-05-04 12:32:00,72.4,49.8,29.91,ENE,67,3.4,3.4,45,0.00,,,0.00,WUHU21623XXSP,2013-05-04 16:32:00,
2013-05-04 12:37:00,72.4,50.4,29.91,NE,45,7.2,7.2,46,0.00,,,0.00,WUHU21623XXSP,2013-05-04 16:37:00,
2013-05-04 12:44:00,72.4,49.8,29.91,East,90,8.5,8.5,45,0.00,,,0.00,WUHU21623XXSP,2013-05-04 16:44:00,
2013-05-04 12:52:00,72.1,49.6,29.91,SE,135,0.0,8.5,45,0.00,,,0.00,WUHU21623XXSP,2013-05-04 16:52:00,
2013-05-04 12:57:00,72.3,50.4,29.91,ENE,67,5.1,5.1,46,0.00,,,0.00,WUHU21623XXSP,2013-05-04 16:57:00,
2013-05-04 13:02:00,72.6,50.0,29.91,SSE,157,0.0,5.1,45,0.00,,,0.00,WUHU21623XXSP,2013-05-04 17:02:00,
2013-05-04 13:07:00,72.8,49.6,29.90,SE,135,0.0,0.0,44,0.00,,,0.00,WUHU21623XXSP,2013-05-04 17:07:00,
2013-05-04 13:12:00,72.8,50.2,29.90,NE,45,6.7,6.7,45,0.00,,,0.00,WUHU21623XXSP,2013-05-04 17:12:00,
2013-05-04 13:17:00,72.6,49.4,29.90,SSE,157,0.0,6.7,44,0.00,,,0.00,WUHU21623XXSP,2013-05-04 17:17:00,
2013-05-04 13:22:00,72.6,50.0,29.90,SSE,157,1.6,1.6,45,0.00,,,0.00,WUHU21623XXSP,2013-05-04 17:22:00,
2013-05-04 13:27:00,73.0,49.8,29.90,SE,135,7.2,7.2,44,0.00,,,0.00,WUHU21623XXSP,2013-05-04 17:27:00,
2013-05-04 13:32:00,73.0,49.8,29.90,NNE,22,3.6,7.2,44,0.00,,,0.00,WUHU21623XXSP,2013-05-04 17:32:00,
2013-05-04 13:37:00,73.0,48.5,29.90,ENE,67,8.1,8.1,42,0.00,,,0.00,WUHU21623XXSP,2013-05-04 17:37:00,
2013-05-04 13:42:00,73.0,49.1,29.90,East,90,0.0,8.1,43,0.00,,,0.00,WUHU21623XXSP,2013-05-04 17:42:00,
2013-05-04 13:48:00,73.5,48.9,29.90,East,90,2.0,7.2,42,0.00,,,0.00,WUHU21623XXSP,2013-05-04 17:48:00,
2013-05-04 13:53:00,73.5,48.3,29.89,East,90,6.0,7.2,41,0.00,,,0.00,WUHU21623XXSP,2013-05-04 17:53:00,
2013-05-04 13:58:00,73.5,47.6,29.89,SE,135,7.2,7.2,40,0.00,,,0.00,WUHU21623XXSP,2013-05-04 17:58:00,
2013-05-04 14:03:00,73.3,47.4,29.89,ESE,112,6.5,7.2,40,0.00,,,0.00,WUHU21623XXSP,2013-05-04 18:03:00,
2013-05-04 14:08:00,73.2,47.3,29.89,ESE,112,2.5,6.5,40,0.00,,,0.00,WUHU21623XXSP,2013-05-04 18:08:00,
2013-05-04 14:13:00,73.0,45.8,29.89,ESE,112,7.6,13.4,38,0.00,,,0.00,WUHU21623XXSP,2013-05-04 18:13:00,
2013-05-04 14:18:00,73.0,45.8,29.89,NE,45,7.2,13.4,38,0.00,,,0.00,WUHU21623XXSP,2013-05-04 18:18:00,
2013-05-04 14:23:00,73.0,46.5,29.89,SSE,157,7.8,8.3,39,0.00,,,0.00,WUHU21623XXSP,2013-05-04 18:23:00,
2013-05-04 14:28:00,73.2,45.9,29.88,ENE,67,0.0,7.8,38,0.00,,,0.00,WUHU21623XXSP,2013-05-04 18:28:00,
2013-05-04 14:33:00,73.3,46.0,29.88,SSE,157,0.0,6.5,38,0.00,,,0.00,WUHU21623XXSP,2013-05-04 18:33:00,
2013-05-04 14:38:00,73.2,46.6,29.88,ENE,67,0.0,6.5,39,0.00,,,0.00,WUHU21623XXSP,2013-05-04 18:38:00,
2013-05-04 14:43:00,73.3,46.0,29.88,NNE,22,9.6,9.6,38,0.00,,,0.00,WUHU21623XXSP,2013-05-04 18:43:00,
2013-05-04 14:48:00,73.2,45.9,29.88,NE,45,6.5,9.6,38,0.00,,,0.00,WUHU21623XXSP,2013-05-04 18:48:00,
2013-05-04 14:53:00,73.3,46.0,29.88,ENE,67,6.3,6.5,38,0.00,,,0.00,WUHU21623XXSP,2013-05-04 18:53:00,
2013-05-04 14:58:00,73.5,45.5,29.88,NE,45,6.7,6.7,37,0.00,,,0.00,WUHU21623XXSP,2013-05-04 18:58:00,
2013-05-04 15:03:00,73.0,45.0,29.88,NE,45,9.8,9.8,37,0.00,,,0.00,WUHU21623XXSP,2013-05-04 19:03:00,
2013-05-04 15:08:00,73.0,45.0,29.88,SSE,157,0.0,9.8,37,0.00,,,0.00,WUHU21623XXSP,2013-05-04 19:08:00,
2013-05-04 15:13:00,73.3,45.3,29.88,ESE,112,7.8,7.8,37,0.00,,,0.00,WUHU21623XXSP,2013-05-04 19:13:00,
2013-05-04 15:18:00,73.7,44.9,29.88,NE,45,6.7,7.8,36,0.00,,,0.00,WUHU21623XXSP,2013-05-04 19:18:00,
2013-05-04 15:24:00,73.9,45.1,29.87,ENE,67,4.3,6.7,36,0.00,,,0.00,WUHU21623XXSP,2013-05-04 19:24:00,
2013-05-04 15:29:00,73.9,45.1,29.87,NE,45,10.7,10.7,36,0.00,,,0.00,WUHU21623XXSP,2013-05-04 19:29:00,
2013-05-04 15:35:00,73.9,45.1,29.87,NNE,22,10.1,10.7,36,0.00,,,0.00,WUHU21623XXSP,2013-05-04 19:35:00,
2013-05-04 15:40:00,73.9,45.1,29.87,SE,135,0.0,10.1,36,0.00,,,0.00,WUHU21623XXSP,2013-05-04 19:40:00,
2013-05-04 15:45:00,73.9,44.4,29.87,ENE,67,7.8,10.1,35,0.00,,,0.00,WUHU21623XXSP,2013-05-04 19:45:00,
2013-05-04 15:50:00,74.1,43.8,29.87,East,90,4.0,7.8,34,0.00,,,0.00,WUHU21623XXSP,2013-05-04 19:50:00,
2013-05-04 15:55:00,73.9,45.1,29.86,SSE,157,0.0,4.0,36,0.00,,,0.00,WUHU21623XXSP,2013-05-04 19:55:00,
2013-05-04 16:00:00,74.1,43.8,29.86,ENE,67,1.3,1.3,34,0.00,,,0.00,WUHU21623XXSP,2013-05-04 20:00:00,
2013-05-04 16:11:00,73.3,43.1,29.86,East,90,9.4,9.4,34,0.00,,,0.00,WUHU21623XXSP,2013-05-04 20:11:00,
2013-05-04 16:16:00,73.3,42.3,29.86,ESE,112,8.3,9.4,33,0.00,,,0.00,WUHU21623XXSP,2013-05-04 20:16:00,
2013-05-04 16:21:00,73.5,42.5,29.85,NE,45,0.0,8.3,33,0.00,,,0.00,WUHU21623XXSP,2013-05-04 20:21:00,
2013-05-04 16:26:00,73.5,42.5,29.85,East,90,6.5,6.5,33,0.00,,,0.00,WUHU21623XXSP,2013-05-04 20:26:00,
2013-05-04 16:31:00,73.9,44.4,29.85,ESE,112,3.6,6.5,35,0.00,,,0.00,WUHU21623XXSP,2013-05-04 20:31:00,
2013-05-04 16:36:00,74.2,43.9,29.85,ESE,112,7.6,7.6,34,0.00,,,0.00,WUHU21623XXSP,2013-05-04 20:36:00,
2013-05-04 16:41:00,74.1,42.2,29.85,NE,45,10.3,10.3,32,0.00,,,0.00,WUHU21623XXSP,2013-05-04 20:41:00,
2013-05-04 16:46:00,73.9,42.0,29.85,East,90,7.4,10.3,32,0.00,,,0.00,WUHU21623XXSP,2013-05-04 20:46:00,
2013-05-04 16:51:00,73.9,42.0,29.85,ESE,112,5.8,7.4,32,0.00,,,0.00,WUHU21623XXSP,2013-05-04 20:51:00,
2013-05-04 16:58:00,74.2,42.3,29.85,ENE,67,0.0,0.0,32,0.00,,,0.00,WUHU21623XXSP,2013-05-04 20:58:00,
2013-05-04 17:05:00,74.4,41.6,29.85,ENE,67,1.1,1.1,31,0.00,,,0.00,WUHU21623XXSP,2013-05-04 21:05:00,
2013-05-04 17:10:00,74.4,41.6,29.85,East,90,10.1,10.1,31,0.00,,,0.00,WUHU21623XXSP,2013-05-04 21:10:00,
2013-05-04 17:15:00,74.2,41.4,29.85,ENE,67,9.6,10.1,31,0.00,,,0.00,WUHU21623XXSP,2013-05-04 21:15:00,
2013-05-04 17:20:00,73.9,40.3,29.85,ESE,112,4.7,9.6,30,0.00,,,0.00,WUHU21623XXSP,2013-05-04 21:20:00,
2013-05-04 17:25:00,73.7,40.2,29.85,East,90,6.0,6.0,30,0.00,,,0.00,WUHU21623XXSP,2013-05-04 21:25:00,
2013-05-04 17:32:00,73.3,39.0,29.85,ESE,112,3.6,6.0,29,0.00,,,0.00,WUHU21623XXSP,2013-05-04 21:32:00,
2013-05-04 17:37:00,73.0,38.7,29.85,NE,45,0.0,3.6,29,0.00,,,0.00,WUHU21623XXSP,2013-05-04 21:37:00,
2013-05-04 17:43:00,73.0,38.7,29.85,ESE,112,0.0,0.0,29,0.00,,,0.00,WUHU21623XXSP,2013-05-04 21:43:00,
2013-05-04 17:48:00,72.8,39.4,29.85,East,90,5.6,5.6,30,0.00,,,0.00,WUHU21623XXSP,2013-05-04 21:48:00,
2013-05-04 17:53:00,72.6,39.2,29.85,ENE,67,0.0,5.6,30,0.00,,,0.00,WUHU21623XXSP,2013-05-04 21:53:00,
2013-05-04 18:05:00,72.1,37.9,29.85,ENE,67,6.0,6.0,29,0.00,,,0.00,WUHU21623XXSP,2013-05-04 22:05:00,
2013-05-04 18:10:00,72.1,37.9,29.85,ENE,67,11.2,11.2,29,0.00,,,0.00,WUHU21623XXSP,2013-05-04 22:10:00,
2013-05-04 18:15:00,71.9,37.7,29.85,NE,45,12.1,12.1,29,0.00,,,0.00,WUHU21623XXSP,2013-05-04 22:15:00,
2013-05-04 18:22:00,71.7,38.4,29.85,ESE,112,0.7,12.1,30,0.00,,,0.00,WUHU21623XXSP,2013-05-04 22:22:00,
2013-05-04 18:27:00,71.7,37.6,29.85,NE,45,7.4,7.4,29,0.00,,,0.00,WUHU21623XXSP,2013-05-04 22:27:00,
2013-05-04 18:32:00,71.7,38.4,29.85,SE,135,3.6,7.4,30,0.00,,,0.00,WUHU21623XXSP,2013-05-04 22:32:00,
2013-05-04 18:37:00,71.5,38.3,29.85,East,90,0.0,6.9,30,0.00,,,0.00,WUHU21623XXSP,2013-05-04 22:37:00,
2013-05-04 18:42:00,71.5,38.3,29.85,ENE,67,8.5,8.5,30,0.00,,,0.00,WUHU21623XXSP,2013-05-04 22:42:00,
2013-05-04 18:47:00,71.2,38.0,29.85,SE,135,0.0,8.5,30,0.00,,,0.00,WUHU21623XXSP,2013-05-04 22:47:00,
2013-05-04 18:52:00,71.2,38.0,29.85,ENE,67,0.0,2.5,30,0.00,,,0.00,WUHU21623XXSP,2013-05-04 22:52:00,
2013-05-04 18:57:00,71.0,37.8,29.85,East,90,0.0,2.5,30,0.00,,,0.00,WUHU21623XXSP,2013-05-04 22:57:00,
2013-05-04 19:02:00,70.8,37.6,29.85,SE,135,0.0,0.0,30,0.00,,,0.00,WUHU21623XXSP,2013-05-04 23:02:00,
2013-05-04 19:07:00,70.6,37.5,29.85,South,180,6.9,7.4,30,0.00,,,0.00,WUHU21623XXSP,2013-05-04 23:07:00,
2013-05-04 19:12:00,70.3,37.2,29.85,SSE,157,1.6,7.4,30,0.00,,,0.00,WUHU21623XXSP,2013-05-04 23:12:00,
2013-05-04 19:17:00,69.9,37.7,29.85,ENE,67,0.0,1.6,31,0.00,,,0.00,WUHU21623XXSP,2013-05-04 23:17:00,
2013-05-04 19:22:00,69.7,36.7,29.85,SSE,157,0.0,0.0,30,0.00,,,0.00,WUHU21623XXSP,2013-05-04 23:22:00,
2013-05-04 19:27:00,69.4,37.3,29.85,ESE,112,0.0,0.0,31,0.00,,,0.00,WUHU21623XXSP,2013-05-04 23:27:00,
2013-05-04 19:32:00,69.2,37.1,29.85,SE,135,0.0,0.0,31,0.00,,,0.00,WUHU21623XXSP,2013-05-04 23:32:00,
2013-05-04 19:37:00,69.0,37.7,29.86,East,90,0.0,0.0,32,0.00,,,0.00,WUHU21623XXSP,2013-05-04 23:37:00,
2013-05-04 19:42:00,68.8,36.7,29.86,NE,45,0.0,0.0,31,0.00,,,0.00,WUHU21623XXSP,2013-05-04 23:42:00,
2013-05-04 19:47:00,68.5,37.3,29.86,ENE,67,0.0,5.1,32,0.00,,,0.00,WUHU21623XXSP,2013-05-04 23:47:00,
2013-05-04 19:52:00,68.5,37.3,29.86,SSE,157,0.0,5.1,32,0.00,,,0.00,WUHU21623XXSP,2013-05-04 23:52:00,
2013-05-04 19:57:00,68.1,36.9,29.86,SE,135,0.0,0.0,32,0.00,,,0.00,WUHU21623XXSP,2013-05-04 23:57:00,
2013-05-04 20:02:00,67.8,36.7,29.86,NE,45,0.0,0.0,32,0.00,,,0.00,WUHU21623XXSP,2013-05-05 00:02:00,
2013-05-04 20:07:00,67.6,36.5,29.86,ENE,67,0.0,0.0,32,0.00,,,0.00,WUHU21623XXSP,2013-05-05 00:07:00,
2013-05-04 20:12:00,67.2,36.1,29.86,SSE,157,0.0,0.0,32,0.00,,,0.00,WUHU21623XXSP,2013-05-05 00:12:00,
2013-05-04 20:17:00,66.9,36.7,29.86,ENE,67,3.4,3.4,33,0.00,,,0.00,WUHU21623XXSP,2013-05-05 00:17:00,
2013-05-04 20:24:00,66.3,36.1,29.86,East,90,0.0,3.4,33,0.00,,,0.00,WUHU21623XXSP,2013-05-05 00:24:00,
2013-05-04 20:29:00,66.3,36.1,29.86,ENE,67,0.0,0.0,33,0.00,,,0.00,WUHU21623XXSP,2013-05-05 00:29:00,
2013-05-04 20:34:00,66.1,36.7,29.86,East,90,0.0,0.0,34,0.00,,,0.00,WUHU21623XXSP,2013-05-05 00:34:00,
2013-05-04 20:39:00,65.6,37.7,29.86,East,90,0.0,0.0,36,0.00,,,0.00,WUHU21623XXSP,2013-05-05 00:39:00,
2013-05-04 20:44:00,65.2,38.1,29.87,ESE,112,0.0,0.0,37,0.00,,,0.00,WUHU21623XXSP,2013-05-05 00:44:00,
2013-05-04 20:49:00,64.9,37.8,29.87,East,90,0.0,0.0,37,0.00,,,0.00,WUHU21623XXSP,2013-05-05 00:49:00,
2013-05-04 20:54:00,64.5,38.2,29.87,East,90,0.0,0.0,38,0.00,,,0.00,WUHU21623XXSP,2013-05-05 00:54:00,
2013-05-04 20:59:00,64.0,38.4,29.87,ENE,67,0.0,0.0,39,0.00,,,0.00,WUHU21623XXSP,2013-05-05 00:59:00,
2013-05-04 21:04:00,64.0,38.4,29.87,ENE,67,0.0,0.0,39,0.00,,,0.00,WUHU21623XXSP,2013-05-05 01:04:00,
2013-05-04 21:09:00,63.6,38.7,29.87,ENE,67,0.0,0.0,40,0.00,,,0.00,WUHU21623XXSP,2013-05-05 01:09:00,
2013-05-04 21:14:00,63.3,38.4,29.87,East,90,3.6,3.6,40,0.00,,,0.00,WUHU21623XXSP,2013-05-05 01:14:00,
2013-05-04 21:19:00,63.1,38.9,29.87,ESE,112,2.0,3.6,41,0.00,,,0.00,WUHU21623XXSP,2013-05-05 01:19:00,
2013-05-04 21:26:00,62.7,38.5,29.87,ESE,112,4.0,4.0,41,0.00,,,0.00,WUHU21623XXSP,2013-05-05 01:26:00,
2013-05-04 21:31:00,62.5,38.3,29.88,East,90,0.0,4.0,41,0.00,,,0.00,WUHU21623XXSP,2013-05-05 01:31:00,
2013-05-04 21:36:00,62.4,38.2,29.87,East,90,0.0,0.0,41,0.00,,,0.00,WUHU21623XXSP,2013-05-05 01:36:00,
2013-05-04 21:41:00,61.8,38.3,29.88,ESE,112,0.0,0.0,42,0.00,,,0.00,WUHU21623XXSP,2013-05-05 01:41:00,
2013-05-04 21:46:00,61.8,38.3,29.88,East,90,0.0,0.0,42,0.00,,,0.00,WUHU21623XXSP,2013-05-05 01:46:00,
2013-05-04 21:51:00,61.3,37.9,29.89,ENE,67,0.0,0.0,42,0.00,,,0.00,WUHU21623XXSP,2013-05-05 01:51:00,
2013-05-04 22:00:00,60.9,38.1,29.89,ESE,112,0.0,0.0,43,0.00,,,0.00,WUHU21623XXSP,2013-05-05 02:00:00,
2013-05-04 22:05:00,60.6,37.9,29.89,ESE,112,0.0,0.0,43,0.00,,,0.00,WUHU21623XXSP,2013-05-05 02:05:00,
2013-05-04 22:10:00,60.4,37.7,29.89,East,90,0.0,0.0,43,0.00,,,0.00,WUHU21623XXSP,2013-05-05 02:10:00,
2013-05-04 22:15:00,60.0,37.9,29.90,East,90,0.0,0.0,44,0.00,,,0.00,WUHU21623XXSP,2013-05-05 02:15:00,
2013-05-04 22:20:00,60.0,37.9,29.90,East,90,0.0,0.0,44,0.00,,,0.00,WUHU21623XXSP,2013-05-05 02:20:00,
2013-05-04 22:25:00,59.7,37.7,29.90,East,90,0.0,0.0,44,0.00,,,0.00,WUHU21623XXSP,2013-05-05 02:25:00,
2013-05-04 22:30:00,59.1,37.7,29.90,East,90,0.0,0.0,45,0.00,,,0.00,WUHU21623XXSP,2013-05-05 02:30:00,
2013-05-04 22:36:00,58.9,37.5,29.90,East,90,0.0,0.0,45,0.00,,,0.00,WUHU21623XXSP,2013-05-05 02:36:00,
2013-05-04 22:41:00,58.6,37.2,29.90,East,90,0.0,0.0,45,0.00,,,0.00,WUHU21623XXSP,2013-05-05 02:41:00,
2013-05-04 22:46:00,58.4,37.6,29.90,East,90,0.0,0.0,46,0.00,,,0.00,WUHU21623XXSP,2013-05-05 02:46:00,
2013-05-04 22:49:00,58.0,37.3,29.90,East,90,0.0,0.0,46,0.00,,,0.00,WUHU21623XXSP,2013-05-05 02:49:00,
2013-05-04 22:51:00,58.0,37.3,29.90,East,90,0.0,0.0,46,0.00,,,0.00,WUHU21623XXSP,2013-05-05 02:51:00,
2013-05-04 23:02:00,57.3,37.2,29.90,East,90,0.0,0.0,47,0.00,,,0.00,WUHU21623XXSP,2013-05-05 03:02:00,
2013-05-04 23:07:00,57.3,37.7,29.90,East,90,0.0,0.0,48,0.00,,,0.00,WUHU21623XXSP,2013-05-05 03:07:00,
2013-05-04 23:12:00,57.1,37.6,29.90,East,90,0.0,0.0,48,0.00,,,0.00,WUHU21623XXSP,2013-05-05 03:12:00,
2013-05-04 23:17:00,56.6,37.1,29.90,East,90,0.0,0.0,48,0.00,,,0.00,WUHU21623XXSP,2013-05-05 03:17:00,
2013-05-04 23:22:00,56.4,37.4,29.90,East,90,0.0,0.0,49,0.00,,,0.00,WUHU21623XXSP,2013-05-05 03:22:00,
2013-05-04 23:27:00,56.2,37.3,29.90,East,90,0.0,0.0,49,0.00,,,0.00,WUHU21623XXSP,2013-05-05 03:27:00,
2013-05-04 23:32:00,56.1,37.2,29.90,East,90,0.0,0.0,49,0.00,,,0.00,WUHU21623XXSP,2013-05-05 03:32:00,
2013-05-04 23:37:00,55.9,37.5,29.90,East,90,0.0,0.0,50,0.00,,,0.00,WUHU21623XXSP,2013-05-05 03:37:00,
2013-05-04 23:42:00,55.5,37.1,29.90,East,90,0.0,0.0,50,0.00,,,0.00,WUHU21623XXSP,2013-05-05 03:42:00,
2013-05-04 23:47:00,55.3,37.0,29.90,East,90,0.0,0.0,50,0.00,,,0.00,WUHU21623XXSP,2013-05-05 03:47:00,
2013-05-04 23:52:00,55.0,37.2,29.90,East,90,0.0,0.0,51,0.00,,,0.00,WUHU21623XXSP,2013-05-05 03:52:00,
2013-05-04 23:57:00,54.8,37.0,29.90,East,90,0.0,0.0,51,0.00,,,0.00,WUHU21623XXSP,2013-05-05 03:57:00,